Roseau, MN

11:00 PM CST on December 10, 2017 (GMT -0600)
Roseau Municipal-Billberg

Weather History for KROX - March, 2013

Change the Weather History Date:

Thursday, March 14, 2013

  Actual Average Record
Temperature  
Mean Temperature 27 °F -  
Max Temperature 33 °F 32 °F 62 °F (2016)
Min Temperature 21 °F 9 °F -31 °F (1956)
Degree Days  
Heating Degree Days 38    
Moisture  
Dew Point 20 °F    
Average Humidity 76    
Maximum Humidity 86    
Minimum Humidity 64    
Precipitation  
Precipitation 0.00 in - - ()
Sea Level Pressure  
Sea Level Pressure 30.05 in    
Wind  
Wind Speed 8 mph (SW)    
Max Wind Speed 21 mph    
Max Gust Speed 28 mph    
Visibility 10 miles    
Events      
Averages and records for this station are not official NWS values.
T = Trace of Precipitation, MM = Missing Value Source: NWS Daily Summary

Daily Weather History Graph

Daily Weather History Graph

Search for Another Location

Airport or City:

Trip Planner

Search our weather history database for the weather conditions in past years. The results will help you decide how hot, cold, wet, or windy it might be!

Date:

Astronomy

Mar. 14, 2013 Rise Set
Actual Time 7:37 AM CDT 7:27 PM CDT
Civil Twilight 7:06 AM CDT 7:58 PM CDT
Nautical Twilight 6:29 AM CDT 8:35 PM CDT
Astronomical Twilight 5:51 AM CDT 9:13 PM CDT
Moon 8:34 AM CDT (3/14) 11:05 PM CDT (3/14)
Length of Visible Light 12h 52m
Length of Day
11h 49m
Waxing Crescent, 9% of the Moon is Illuminated
Mar 14
Waxing Crescent
Mar 19
First Quarter
Mar 27
Full
Apr 2
Last Quarter
Apr 10
New

Hourly Weather History & Observations

Time (CDT) Temp. Windchill Dew Point Humidity Pressure Visibility Wind Dir Wind Speed Gust Speed Precip Events Conditions
12:14 AM 21.2 °F 11.7 °F 12.2 °F 68% 30.10 in 10.0 mi SSE 8.1 mph - N/A   Scattered Clouds
12:34 AM 21.2 °F 13.6 °F 14.0 °F 74% 30.10 in 10.0 mi SSE 5.8 mph - N/A   Mostly Cloudy
12:54 AM 21.2 °F 12.6 °F 14.0 °F 74% 30.09 in 10.0 mi SE 6.9 mph - N/A   Mostly Cloudy
1:14 AM 21.2 °F 12.6 °F 14.0 °F 74% 30.09 in 10.0 mi SSE 6.9 mph - N/A   Mostly Cloudy
1:34 AM 21.2 °F 11.7 °F 14.0 °F 74% 30.08 in 10.0 mi SSE 8.1 mph - N/A   Overcast
1:54 AM 23.0 °F 15.8 °F 15.8 °F 74% 30.07 in 10.0 mi SSE 5.8 mph - N/A   Overcast
2:14 AM 23.0 °F 13.9 °F 15.8 °F 74% 30.06 in 10.0 mi SSE 8.1 mph - N/A   Overcast
2:34 AM 23.0 °F 13.1 °F 15.8 °F 74% 30.05 in 10.0 mi SSE 9.2 mph - N/A   Mostly Cloudy
2:55 AM 21.2 °F 10.9 °F 12.2 °F 68% 30.05 in 10.0 mi South 9.2 mph - N/A   Scattered Clouds
3:14 AM 21.2 °F 10.1 °F 14.0 °F 74% 30.05 in 10.0 mi South 10.4 mph - N/A   Scattered Clouds
3:35 AM 21.2 °F 10.1 °F 15.8 °F 80% 30.05 in 10.0 mi South 10.4 mph - N/A   Mostly Cloudy
3:54 AM 21.2 °F 12.6 °F 15.8 °F 80% 30.06 in 10.0 mi South 6.9 mph - N/A   Mostly Cloudy
4:14 AM 23.0 °F 14.7 °F 17.6 °F 80% 30.05 in 10.0 mi South 6.9 mph - N/A   Mostly Cloudy
4:35 AM 23.0 °F 17.0 °F 17.6 °F 80% 30.06 in 10.0 mi South 4.6 mph - N/A   Scattered Clouds
4:54 AM 23.0 °F 15.8 °F 17.6 °F 80% 30.06 in 10.0 mi SSE 5.8 mph - N/A   Mostly Cloudy
5:14 AM 24.8 °F 20.5 °F 17.6 °F 74% 30.06 in 10.0 mi SSE 3.5 mph - N/A   Mostly Cloudy
5:35 AM 24.8 °F - 17.6 °F 74% 30.06 in 10.0 mi Calm Calm - N/A   Scattered Clouds
5:54 AM 23.0 °F - 17.6 °F 80% 30.05 in 10.0 mi Calm Calm - N/A   Scattered Clouds
6:14 AM 24.8 °F 17.9 °F 17.6 °F 74% 30.04 in 10.0 mi SE 5.8 mph - N/A   Scattered Clouds
6:35 AM 24.8 °F 19.1 °F 17.6 °F 74% 30.04 in 10.0 mi SSE 4.6 mph - N/A   Scattered Clouds
6:54 AM 24.8 °F 19.1 °F 17.6 °F 74% 30.04 in 10.0 mi SSE 4.6 mph - N/A   Clear
7:14 AM 24.8 °F 16.9 °F 19.4 °F 80% 30.03 in 10.0 mi South 6.9 mph - N/A   Scattered Clouds
7:35 AM 24.8 °F 16.1 °F 19.4 °F 80% 30.03 in 10.0 mi South 8.1 mph - N/A   Scattered Clouds
7:54 AM 24.8 °F 16.1 °F 19.4 °F 80% 30.02 in 10.0 mi South 8.1 mph - N/A   Scattered Clouds
8:14 AM 24.8 °F 16.9 °F 19.4 °F 80% 30.05 in 10.0 mi SW 6.9 mph - N/A   Scattered Clouds
8:35 AM 26.6 °F 19.1 °F 21.2 °F 80% 30.03 in 10.0 mi SSW 6.9 mph - N/A   Scattered Clouds
8:54 AM 26.6 °F 18.2 °F 21.2 °F 80% 30.03 in 10.0 mi SSW 8.1 mph - N/A   Clear
9:14 AM 26.6 °F 18.2 °F 21.2 °F 80% 30.05 in 10.0 mi SW 8.1 mph - N/A   Clear
9:34 AM 26.6 °F 17.5 °F 21.2 °F 80% 30.05 in 10.0 mi SW 9.2 mph - N/A   Clear
9:54 AM 28.4 °F 20.4 °F 21.2 °F 74% 30.07 in 10.0 mi WSW 8.1 mph - N/A   Clear
10:14 AM 28.4 °F 19.1 °F 23.0 °F 80% 30.07 in 10.0 mi WSW 10.4 mph - N/A   Clear
10:34 AM 28.4 °F 19.1 °F 23.0 °F 80% 30.06 in 10.0 mi SW 10.4 mph - N/A   Clear
10:54 AM 28.4 °F 20.4 °F 24.8 °F 86% 30.05 in 10.0 mi SW 8.1 mph - N/A   Clear
11:15 AM 30.2 °F 21.9 °F 24.8 °F 80% 30.04 in 10.0 mi WSW 9.2 mph - N/A   Clear
11:34 AM 30.2 °F 20.8 °F 24.8 °F 80% 30.04 in 10.0 mi SW 11.5 mph - N/A   Clear
11:54 AM 30.2 °F 22.6 °F 24.8 °F 80% 30.04 in 10.0 mi WSW 8.1 mph - N/A   Clear
12:13 PM 30.2 °F 21.9 °F 24.8 °F 80% 30.04 in 10.0 mi WSW 9.2 mph - N/A   Clear
12:34 PM 30.2 °F 21.3 °F 24.8 °F 80% 30.04 in 7.0 mi SW 10.4 mph - N/A   Clear
12:54 PM 30.2 °F 22.6 °F 24.8 °F 80% 30.04 in 7.0 mi West 8.1 mph - N/A   Clear
1:14 PM 32.0 °F 24.8 °F 24.8 °F 75% 30.03 in 7.0 mi WNW 8.1 mph - N/A   Clear
1:35 PM 32.0 °F 24.2 °F 24.8 °F 75% 30.03 in 7.0 mi WSW 9.2 mph - N/A   Clear
1:54 PM 32.0 °F 24.8 °F 24.8 °F 75% 30.02 in 7.0 mi SW 8.1 mph - N/A   Clear
2:14 PM 32.0 °F 25.6 °F 24.8 °F 75% 30.03 in 7.0 mi SW 6.9 mph - N/A   Clear
2:35 PM 33.8 °F 27.7 °F 26.6 °F 75% 30.03 in 10.0 mi WSW 6.9 mph - N/A   Clear
2:54 PM 33.8 °F 27.0 °F 26.6 °F 75% 30.03 in 10.0 mi West 8.1 mph - N/A   Clear
3:14 PM 33.8 °F 27.0 °F 26.6 °F 75% 30.03 in 10.0 mi WNW 8.1 mph - N/A   Clear
3:35 PM 33.8 °F 26.4 °F 26.6 °F 75% 30.02 in 10.0 mi West 9.2 mph - N/A   Clear
3:54 PM 33.8 °F 26.4 °F 26.6 °F 75% 30.02 in 10.0 mi West 9.2 mph - N/A   Clear
4:14 PM 33.8 °F 27.7 °F 26.6 °F 75% 30.02 in 10.0 mi WNW 6.9 mph - N/A   Clear
4:34 PM 33.8 °F 25.8 °F 26.6 °F 75% 30.02 in 7.0 mi West 10.4 mph - N/A   Clear
4:54 PM 33.8 °F 25.8 °F 26.6 °F 75% 30.02 in 7.0 mi West 10.4 mph - N/A   Clear
5:14 PM 33.8 °F 25.8 °F 26.6 °F 75% 30.03 in 7.0 mi West 10.4 mph - N/A   Clear
5:34 PM 33.8 °F 25.8 °F 26.6 °F 75% 30.03 in 7.0 mi West 10.4 mph - N/A   Clear
5:54 PM 33.8 °F 27.0 °F 26.6 °F 75% 30.03 in 7.0 mi West 8.1 mph - N/A   Clear
6:14 PM 32.0 °F 23.0 °F 24.8 °F 75% 30.02 in 10.0 mi West 11.5 mph - N/A   Clear
6:34 PM 32.0 °F 24.8 °F 24.8 °F 75% 30.03 in 10.0 mi WNW 8.1 mph - N/A   Clear
6:54 PM 33.8 °F 24.8 °F 26.6 °F 75% 30.03 in 10.0 mi North 12.7 mph - N/A   Scattered Clouds
7:14 PM 33.8 °F 24.8 °F 24.8 °F 70% 30.04 in 10.0 mi North 12.7 mph - N/A   Scattered Clouds
7:34 PM 30.2 °F 19.3 °F 23.0 °F 75% 30.04 in 10.0 mi North 15.0 mph - N/A   Clear
7:54 PM 28.4 °F 18.0 °F 21.2 °F 74% 30.05 in 10.0 mi North 12.7 mph - N/A   Scattered Clouds
8:14 PM 28.4 °F 18.0 °F 19.4 °F 69% 30.06 in 10.0 mi North 12.7 mph - N/A   Scattered Clouds
8:34 PM 26.6 °F 14.3 °F 17.6 °F 69% 30.07 in 10.0 mi North 16.1 mph - N/A   Clear
8:55 PM 26.6 °F 12.7 °F 15.8 °F 64% 30.07 in 10.0 mi North 20.7 mph 27.6 mph N/A   Clear
9:14 PM 24.8 °F 12.4 °F 15.8 °F 69% 30.08 in 10.0 mi North 15.0 mph - N/A   Scattered Clouds
9:34 PM 24.8 °F 14.0 °F 17.6 °F 74% 30.08 in 10.0 mi North 11.5 mph - N/A   Scattered Clouds
9:55 PM 24.8 °F 12.4 °F 17.6 °F 74% 30.09 in 10.0 mi North 15.0 mph - N/A   Scattered Clouds
10:14 PM 24.8 °F 12.9 °F 17.6 °F 74% 30.09 in 10.0 mi North 13.8 mph - N/A   Clear
10:34 PM 24.8 °F 12.9 °F 15.8 °F 69% 30.09 in 10.0 mi North 13.8 mph - N/A   Clear
10:55 PM 24.8 °F 12.9 °F 15.8 °F 69% 30.09 in 10.0 mi North 13.8 mph - N/A   Scattered Clouds
11:14 PM 23.0 °F 10.1 °F 15.8 °F 74% 30.09 in 10.0 mi North 15.0 mph - N/A   Mostly Cloudy
11:34 PM 23.0 °F 11.1 °F 15.8 °F 74% 30.09 in 10.0 mi North 12.7 mph - N/A   Overcast
11:55 PM 21.2 °F 7.8 °F 15.8 °F 80% 30.10 in 10.0 mi North 15.0 mph - N/A   Mostly Cloudy